Weather History for KROW - September, 2012

Change the Weather History Date:

Friday, September 28, 2012

  Actual Average Record
Temperature  
Mean Temperature 67 °F 68 °F  
Max Temperature 73 °F 82 °F 97 °F (1994)
Min Temperature 60 °F 54 °F 33 °F (1936)
Degree Days  
Heating Degree Days 0 1  
Month to date heating degree days 9 11  
Since 1 July heating degree days 9 11  
Cooling Degree Days 2 4  
Month to date cooling degree days 263 220  
Year to date cooling degree days 2291 1744  
Growing Degree Days 16 (Base 50)    
Moisture  
Dew Point 60 °F    
Average Humidity 83    
Maximum Humidity 97    
Minimum Humidity 68    
Precipitation  
Precipitation 0.65 in 0.04 in 1.62 in (1941)
Month to date precipitation 1.46 1.44  
Year to date precipitation 5.46 10.37  
Sea Level Pressure  
Sea Level Pressure 30.04 in    
Wind  
Wind Speed 5 mph (ESE)    
Max Wind Speed 20 mph    
Max Gust Speed 26 mph    
Visibility 8 miles    
Events Rain    
T = Trace of Precipitation, MM = Missing Value Source: NWS Daily Summary

Daily Weather History Graph

Daily Weather History Graph

Search for Another Location

Airport or City:

Trip Planner

Search our weather history database for the weather conditions in past years. The results will help you decide how hot, cold, wet, or windy it might be!

Date:

Astronomy

Sep. 28, 2012 Rise Set
Actual Time 6:50 AM MDT 6:45 PM MDT
Civil Twilight 6:25 AM MDT 7:10 PM MDT
Nautical Twilight 5:57 AM MDT 7:39 PM MDT
Astronomical Twilight 5:28 AM MDT 8:08 PM MDT
Moon 5:48 PM MDT (9/28) 5:26 AM MDT (9/28)
Length of Visible Light 12h 44m
Length of Day
11h 55m
Waxing Gibbous, 98% of the Moon is Illuminated
Sep 28
Waxing Gibbous
Sep 29
Full
Oct 8
Last Quarter
Oct 15
New
Oct 21
First Quarter

Hourly Weather History & Observations

Time (MDT) Temp. Dew Point Humidity Pressure Visibility Wind Dir Wind Speed Gust Speed Precip Events Conditions
12:51 AM 62.1 °F 55.9 °F 80% 29.96 in 10.0 mi NNE 3.5 mph - N/A   Clear
1:51 AM 61.0 °F 55.9 °F 83% 29.96 in 10.0 mi SE 4.6 mph - N/A   Clear
2:51 AM 61.0 °F 55.9 °F 83% 29.95 in 10.0 mi SSE 6.9 mph - N/A   Clear
3:51 AM 62.1 °F 57.9 °F 86% 29.93 in 10.0 mi SE 4.6 mph - N/A   Clear
4:29 AM 62.6 °F 60.8 °F 94% 30.09 in 8.0 mi SE 6.9 mph - N/A   Partly Cloudy
4:42 AM 62.6 °F 60.8 °F 94% 30.10 in 7.0 mi SE 6.9 mph - N/A   Mostly Cloudy
4:51 AM 63.0 °F 60.1 °F 90% 29.93 in 7.0 mi SE 4.6 mph - N/A   Overcast
5:16 AM 62.6 °F 60.8 °F 94% 30.09 in 7.0 mi ESE 3.5 mph - N/A   Scattered Clouds
5:51 AM 61.0 °F 59.0 °F 93% 29.93 in 6.0 mi ESE 3.5 mph - N/A   Partly Cloudy
6:51 AM 61.0 °F 57.9 °F 90% 29.95 in 6.0 mi Calm Calm - N/A   Clear
7:10 AM 60.8 °F 59.0 °F 94% 30.10 in 6.0 mi Calm Calm - N/A   Scattered Clouds
7:18 AM 60.8 °F 59.0 °F 94% 30.10 in 5.0 mi Calm Calm - N/A   Overcast
7:51 AM 62.1 °F 60.1 °F 93% 29.97 in 6.0 mi ESE 3.5 mph - N/A   Overcast
8:51 AM 64.0 °F 61.0 °F 90% 30.00 in 5.0 mi SE 9.2 mph - N/A   Overcast
9:41 AM 66.2 °F 60.8 °F 83% 30.16 in 10.0 mi ESE 4.6 mph - N/A   Overcast
9:51 AM 64.9 °F 61.0 °F 87% 30.02 in 7.0 mi East 5.8 mph - N/A   Overcast
10:51 AM 66.9 °F 61.0 °F 81% 30.02 in 9.0 mi Calm Calm - N/A   Overcast
11:51 AM 70.0 °F 61.0 °F 73% 29.99 in 10.0 mi Variable 4.6 mph - N/A   Overcast
12:09 PM 71.6 °F 60.8 °F 69% 30.13 in 10.0 mi NW 4.6 mph - N/A   Scattered Clouds
12:16 PM 69.8 °F 60.8 °F 73% 30.12 in 10.0 mi WNW 4.6 mph - N/A   Mostly Cloudy
12:37 PM 71.6 °F 60.8 °F 69% 30.12 in 10.0 mi Calm Calm - N/A   Mostly Cloudy
12:44 PM 73.4 °F 60.8 °F 65% 30.11 in 10.0 mi Variable 4.6 mph - N/A   Mostly Cloudy
12:51 PM 72.0 °F 61.0 °F 68% 29.96 in 10.0 mi NNW 4.6 mph - N/A   Mostly Cloudy
1:51 PM 66.0 °F 61.0 °F 84% 29.96 in 10.0 mi East 15.0 mph 24.2 mph N/A   Overcast
1:58 PM 64.4 °F 62.6 °F 94% 30.11 in 4.0 mi East 15.0 mph - 0.02 in Rain Heavy Rain
2:02 PM 64.4 °F 62.6 °F 94% 30.11 in 1.8 mi East 11.5 mph - 0.09 in Rain Heavy Rain
2:09 PM 64.4 °F 62.6 °F 94% 30.11 in 1.2 mi ENE 10.4 mph - 0.21 in Rain Heavy Rain
2:17 PM 64.4 °F 62.6 °F 94% 30.10 in 1.8 mi ENE 13.8 mph - 0.27 in Rain Heavy Rain
2:36 PM 62.6 °F 62.6 °F 100% 30.11 in 3.0 mi East 12.7 mph 26.5 mph 0.37 in Rain Rain
2:51 PM 62.1 °F 60.1 °F 93% 29.99 in 3.0 mi East 16.1 mph 24.2 mph 0.39 in Rain Light Rain
3:51 PM 62.1 °F 60.1 °F 93% 30.00 in 4.0 mi East 11.5 mph - 0.13 in Rain Rain
4:21 PM 62.6 °F 60.8 °F 94% 30.13 in 7.0 mi ESE 6.9 mph - 0.05 in Rain Rain
4:51 PM 62.1 °F 59.0 °F 90% 29.98 in 7.0 mi ESE 9.2 mph - 0.09 in Rain Light Rain
5:38 PM 62.6 °F 60.8 °F 94% 30.09 in 10.0 mi SSE 5.8 mph - 0.02 in Rain Light Rain
5:51 PM 62.1 °F 59.0 °F 90% 29.98 in 10.0 mi Calm Calm - 0.02 in   Overcast
6:51 PM 62.1 °F 59.0 °F 90% 29.98 in 10.0 mi WSW 8.1 mph - 0.00 in   Overcast
7:51 PM 62.1 °F 57.9 °F 86% 30.00 in 10.0 mi Calm Calm - N/A   Overcast
8:11 PM 62.6 °F 59.0 °F 88% 30.13 in 10.0 mi Calm Calm - N/A   Overcast
8:51 PM 62.1 °F 59.0 °F 90% 30.02 in 10.0 mi NNE 3.5 mph - N/A   Overcast
9:19 PM 62.6 °F 60.8 °F 94% 30.16 in 10.0 mi Calm Calm - N/A   Overcast
9:49 PM 62.6 °F 60.8 °F 94% 30.16 in 10.0 mi Calm Calm - N/A   Overcast
9:51 PM 62.1 °F 60.1 °F 93% 30.03 in 10.0 mi Calm Calm - N/A   Overcast
10:51 PM 62.1 °F 60.1 °F 93% 30.03 in 10.0 mi North 3.5 mph - 0.00 in Rain Light Rain
11:51 PM 62.1 °F 60.1 °F 93% 30.01 in 10.0 mi West 3.5 mph - 0.01 in Rain Light Rain